This is the latest recevied weather packets stored in our database for station/object KU9TRY. If no packets are shown the sender has not sent any weather packets the latest 10 day(s).
| Time | Temp. | Humidity | Pressure | Rain* | Wind** | Luminosity | Snow |
|---|---|---|---|---|---|---|---|
| 1778273343 | 22.22° C | 30% | 1012.7 hPa | 0 mm | - | 40 W/m² | - |
| 1778273041 | 22.22° C | 32% | 1012.6 hPa | 0 mm | - | 41 W/m² | - |
| 1778272736 | 22.22° C | 40% | 1012.6 hPa | 0 mm | - | 42 W/m² | - |
| 1778272432 | 22.22° C | 30% | 1012.7 hPa | 0 mm | - | 42 W/m² | - |
| 1778272128 | 22.22° C | 34% | 1012.8 hPa | 0 mm | - | 80 W/m² | - |
| 1778271826 | 22.22° C | 37% | 1013 hPa | 0 mm | - | 41 W/m² | - |
| 1778271523 | 22.22° C | 32% | 1013.1 hPa | 0 mm | - | 44 W/m² | - |
| 1778271220 | 22.22° C | 30% | 1013 hPa | 0 mm | - | 45 W/m² | - |
| 1778270916 | 22.22° C | 33% | 1013.1 hPa | 0 mm | - | 44 W/m² | - |
| 1778270613 | 22.22° C | 28% | 1013.3 hPa | 0 mm | - | 50 W/m² | - |
| 1778270309 | 22.22° C | 29% | 1013.4 hPa | 0 mm | - | 54 W/m² | - |
| 1778270006 | 22.22° C | 28% | 1013.4 hPa | 0 mm | - | 53 W/m² | - |
| 1778269702 | 22.22° C | 31% | 1013.4 hPa | 0 mm | - | 48 W/m² | - |
| 1778269399 | 22.22° C | 28% | 1013.4 hPa | 0 mm | - | 47 W/m² | - |
| 1778269096 | 21.67° C | 40% | 1013.3 hPa | 0 mm | - | 47 W/m² | - |
| 1778268793 | 21.67° C | 28% | 1013.6 hPa | 0 mm | - | 48 W/m² | - |
| 1778268489 | 21.67° C | 28% | 1013.6 hPa | 0 mm | - | 49 W/m² | - |
| 1778268186 | 21.11° C | 29% | 1013.8 hPa | 0 mm | - | 48 W/m² | - |
| 1778267883 | 21.11° C | 28% | 1013.7 hPa | 0 mm | - | 46 W/m² | - |
| 1778267580 | 21.67° C | 30% | 1014 hPa | 0 mm | - | 47 W/m² | - |
| 1778267278 | 21.11° C | 32% | 1014 hPa | 0 mm | - | 48 W/m² | - |
| 1778266973 | 21.67° C | 28% | 1014.3 hPa | 0 mm | - | 49 W/m² | - |
| 1778266670 | 21.67° C | 29% | 1014.4 hPa | 0 mm | - | 47 W/m² | - |
| 1778266368 | 21.67° C | 27% | 1014.4 hPa | 0 mm | - | 47 W/m² | - |
| 1778266065 | 21.67° C | 28% | 1014.7 hPa | 0 mm | - | 48 W/m² | - |
* Rain latest hour (hover to see other rain measurements)
** Current wind speed in m/s (hover to see current wind gust speed)